This is the latest recevied weather packets stored in our database for station/object W1NHD. If no packets are shown the sender has not sent any weather packets the latest 10 day(s).
| Time | Temp. | Humidity | Pressure | Rain* | Wind** | Luminosity | Snow |
|---|---|---|---|---|---|---|---|
| 1777493437 | 7.78° C | 90% | 1014.6 hPa | 0 mm | - | - | - |
| 1777492217 | 7.78° C | 90% | 1014.8 hPa | 0 mm | - | - | - |
| 1777491618 | 7.78° C | 91% | 1015 hPa | 0 mm | - | - | - |
| 1777491017 | 7.78° C | 91% | 1015.1 hPa | 0 mm | - | - | - |
| 1777489218 | 7.78° C | 90% | 1015.5 hPa | 0 mm | - | - | - |
| 1777486217 | 8.33° C | 89% | 1015.8 hPa | 0 mm | - | - | - |
| 1777484438 | 8.33° C | 90% | 1016 hPa | 0 mm | - | - | - |
| 1777482017 | 7.78° C | 91% | 1016.1 hPa | 0 mm | - | - | - |
| 1777481438 | 7.78° C | 92% | 1016 hPa | 0 mm | - | - | - |
| 1777478417 | 7.78° C | 89% | 1016.2 hPa | 0 mm | - | - | - |
| 1777467616 | 6.67° C | 97% | 1018.6 hPa | 0 mm | - | - | - |
| 1777461016 | 6.67° C | 96% | 1018.3 hPa | 0 mm | - | - | - |
| 1777459216 | 6.67° C | 96% | 1017.7 hPa | 0 mm | - | - | - |
| 1777454416 | 6.67° C | 96% | 1017.2 hPa | 0 mm | - | - | - |
| 1777452018 | 6.67° C | 95% | 1017.6 hPa | 0 mm | - | - | - |
| 1777443617 | 7.22° C | 90% | 1018.8 hPa | 0 mm | - | - | - |
| 1777440017 | 7.78° C | 88% | 1018.5 hPa | 0 mm | - | - | - |
| 1777438817 | 7.78° C | 88% | 1018.9 hPa | 0 mm | - | - | - |
| 1777437617 | 7.78° C | 87% | 1018.5 hPa | 0 mm | - | - | - |
| 1777434617 | 7.22° C | 85% | 1019 hPa | 0 mm | - | - | - |
| 1777433416 | 7.22° C | 83% | 1019.2 hPa | 0 mm | - | - | - |
| 1777432816 | 7.22° C | 82% | 1019.1 hPa | 0 mm | - | - | - |
| 1777431016 | 7.22° C | 80% | 1019.7 hPa | 0 mm | - | - | - |
| 1777427416 | 6.67° C | 79% | 1020.6 hPa | 0 mm | - | - | - |
| 1777418119 | 7.22° C | 80% | 1020.6 hPa | 0 mm | - | - | - |
* Rain latest hour (hover to see other rain measurements)
** Current wind speed in m/s (hover to see current wind gust speed)